DW7756 Weather Reports


Display with metric or nautical units.
time (UTC)temp
F
wind
direction
speed
MPH
gust
MPH
rain 1hr
in
rain 24hr
in
rain mn
in
humidity
%
barometer
mb
20260507120030 69 188 2.0 5.0 0.00 0.00 0.00 86 1016.5
20260507114529 69 202 3.0 6.0 0.00 0.00 0.00 86 1016.4
20260507113029 68 176 2.0 5.0 0.00 0.00 0.00 86 1016.1
20260507111533 67 152 1.0 8.0 0.00 0.00 0.00 86 1016.1
20260507110032 67 196 1.0 3.0 0.00 0.00 0.00 86 1016.0
20260507104530 67 173 0.0 2.0 0.00 0.00 0.00 86 1015.8
20260507103040 67 180 0.0 2.0 0.00 0.00 0.00 86 1015.8
20260507101530 67 0 0.0 4.0 0.00 0.00 0.00 86 1015.7
20260507100031 67 169 1.0 3.0 0.00 0.00 0.00 86 1015.5
20260507094533 67 188 0.0 2.0 0.00 0.00 0.00 86 1015.4
20260507093032 67 0 0.0 4.0 0.00 0.00 0.00 86 1015.0
20260507091537 67 178 0.0 5.0 0.00 0.00 0.00 86 1015.0
20260507090035 67 177 1.0 3.0 0.00 0.00 0.00 86 1015.0
20260507084541 66 0 0.0 2.0 0.00 0.00 0.00 86 1014.8
20260507083033 66 0 0.0 0.0 0.00 0.00 0.00 85 1014.9
20260507081530 67 0 0.0 1.0 0.00 0.00 0.00 85 1014.9
20260507080030 67 0 0.0 0.0 0.00 0.00 0.00 85 1015.0
20260507074530 67 0 0.0 0.0 0.00 0.00 0.00 84 1015.0
20260507073038 67 0 0.0 0.0 0.00 0.00 0.00 84 1015.2
20260507071532 67 0 0.0 0.0 0.00 0.00 0.00 83 1015.3
20260507070041 67 0 0.0 0.0 0.00 0.00 0.00 83 1015.4
20260507064532 68 0 0.0 0.0 0.00 0.00 0.00 82 1015.6
20260507063034 69 0 0.0 0.0 0.00 0.00 0.00 81 1015.8
20260507061532 69 0 0.0 0.0 0.00 0.00 0.00 81 1015.9
20260507060033 69 0 0.0 0.0 0.00 0.00 0.00 81 1016.1
20260507054540 70 0 0.0 0.0 0.00 0.00 0.00 80 1016.2
20260507053030 70 224 0.0 2.0 0.00 0.00 0.00 79 1016.2
20260507051531 71 290 0.0 2.0 0.00 0.00 0.00 79 1016.3
20260507050040 71 0 0.0 3.0 0.00 0.00 0.00 79 1016.5
20260507044530 72 214 1.0 9.0 0.00 0.00 0.00 78 1016.6
20260507043030 72 0 0.0 12.0 0.00 0.00 0.00 79 1016.1
20260507041529 72 0 0.0 2.0 0.00 0.00 0.00 80 1016.1
20260507040031 73 0 0.0 2.0 0.00 0.00 0.00 79 1015.9
20260507034530 73 198 0.0 2.0 0.00 0.00 0.00 78 1016.0
20260507033030 73 0 0.0 2.0 0.00 0.00 0.00 77 1016.1
20260507031532 73 0 0.0 2.0 0.00 0.00 0.00 77 1016.3
20260507030031 73 77 0.0 2.0 0.00 0.00 0.00 76 1016.2
20260507024536 74 0 0.0 2.0 0.00 0.00 0.00 75 1016.2
20260507023030 74 0 0.0 2.0 0.00 0.00 0.00 74 1016.1
20260507021535 74 95 0.0 2.0 0.00 0.00 0.00 73 1016.1
20260507020030 74 144 1.0 3.0 0.00 0.00 0.00 71 1016.1
20260507014536 75 121 0.0 2.0 0.00 0.00 0.00 69 1016.1
20260507013036 75 0 0.0 2.0 0.00 0.00 0.00 68 1016.2
20260507011538 76 83 0.0 2.0 0.00 0.00 0.00 65 1016.3
20260507010037 76 0 0.0 3.0 0.00 0.00 0.00 63 1016.0
20260507004531 77 87 1.0 4.0 0.00 0.00 0.00 61 1015.8
20260507003030 77 0 1.0 6.0 0.00 0.00 0.00 60 1015.7
20260507001548 78 85 0.0 3.0 0.00 0.00 0.00 58 1015.8
20260507000036 79 0 0.0 7.0 0.00 0.00 0.00 57 1015.7
20260506234536 80 83 1.0 7.0 0.00 0.00 0.00 57 1015.6
20260506233030 81 60 2.0 7.0 0.00 0.00 0.00 56 1015.6
20260506231534 81 148 1.0 5.0 0.00 0.00 0.00 54 1015.7
20260506230032 82 80 2.0 7.0 0.00 0.00 0.00 52 1015.6
20260506224532 83 111 2.0 6.0 0.00 0.00 0.00 51 1015.5
20260506223028 84 88 1.0 7.0 0.00 0.00 0.00 51 1015.6
20260506221528 84 98 2.0 7.0 0.00 0.00 0.00 52 1015.8
20260506220032 85 61 2.0 8.0 0.00 0.00 0.00 52 1015.8
20260506214530 85 126 3.0 9.0 0.00 0.00 0.00 53 1015.7
20260506213037 85 65 3.0 7.0 0.00 0.00 0.00 55 1015.7
20260506211540 86 85 3.0 9.0 0.00 0.00 0.00 52 1015.7
20260506210040 87 65 3.0 11.0 0.00 0.00 0.00 52 1015.6
20260506204533 87 82 2.0 8.0 0.00 0.00 0.00 51 1015.7
20260506203034 87 100 3.0 12.0 0.00 0.00 0.00 52 1015.9
20260506201536 89 127 2.0 10.0 0.00 0.00 0.00 49 1015.7
20260506200032 89 155 2.0 8.0 0.00 0.00 0.00 51 1015.9
20260506194530 88 107 2.0 9.0 0.00 0.00 0.00 50 1016.0
20260506193043 88 74 3.0 9.0 0.00 0.00 0.00 48 1016.0
20260506191529 88 48 2.0 10.0 0.00 0.00 0.00 49 1016.1
20260506190032 89 88 3.0 10.0 0.00 0.00 0.00 45 1016.4
20260506184536 89 84 3.0 9.0 0.00 0.00 0.00 46 1016.6
20260506183032 89 86 2.0 9.0 0.00 0.00 0.00 46 1016.7
20260506181540 90 127 1.0 5.0 0.00 0.00 0.00 47 1016.7
20260506180032 88 148 2.0 10.0 0.00 0.00 0.00 49 1016.8
20260506174536 88 62 3.0 10.0 0.00 0.00 0.00 49 1016.9
20260506173058 88 189 2.0 11.0 0.00 0.00 0.00 51 1017.1
20260506171539 89 119 2.0 9.0 0.00 0.00 0.00 53 1017.2
20260506170044 87 80 2.0 9.0 0.00 0.00 0.00 53 1017.2
20260506164532 87 72 4.0 12.0 0.00 0.00 0.00 53 1017.3
20260506163035 88 174 2.0 8.0 0.00 0.00 0.00 53 1017.2
20260506161532 87 69 1.0 7.0 0.00 0.00 0.00 55 1017.3
20260506160037 87 196 2.0 5.0 0.00 0.00 0.00 54 1017.4
20260506154538 87 200 0.0 7.0 0.00 0.00 0.00 59 1017.5
20260506153031 86 81 2.0 9.0 0.00 0.00 0.00 54 1017.6
20260506151533 85 192 3.0 8.0 0.00 0.00 0.00 56 1017.7
20260506150032 84 194 1.0 6.0 0.00 0.00 0.00 63 1017.7
20260506144532 83 115 2.0 10.0 0.00 0.00 0.00 63 1017.7
20260506143030 82 93 1.0 4.0 0.00 0.00 0.00 66 1017.7
20260506141531 81 101 1.0 7.0 0.00 0.00 0.00 69 1017.8
20260506140034 80 140 1.0 6.0 0.00 0.00 0.00 73 1017.6
20260506134532 78 86 1.0 8.0 0.00 0.00 0.00 78 1017.6
20260506133036 76 169 2.0 5.0 0.00 0.00 0.00 82 1017.5
20260506131534 74 0 1.0 4.0 0.00 0.00 0.00 86 1017.5
20260506130035 72 115 0.0 2.0 0.00 0.00 0.00 88 1017.4
20260506124529 71 105 0.0 2.0 0.00 0.00 0.00 88 1017.2
20260506123033 69 0 0.0 0.0 0.00 0.00 0.00 88 1017.2
20260506121532 68 0 0.0 0.0 0.00 0.00 0.00 88 1017.0